This demonstration page uses our WeatherBlox Daily Observations layout. Learn more.

41.55636, -103.73856

Hourly Observations for October 26, 2016

Temp ( °F °C ) Dew Point ( °F °C ) Humidity (%) Winds ( mph kmh ) Pressure ( in mb ) Visibility ( mi km ) Precip ( " mm )
12:53 am 00:53 Clear 45 7.2 35 1.7 68 68 NW 8 13 30.11 1020 10 16.0934 0 0
1:53 am 01:53 Clear 44 6.7 34 1.1 68 68 NNW 7 11 30.11 1020 10 16.0934 0 0
2:53 am 02:53 Clear 41 5 34 1.1 76 76 undefined N/A 30.11 1020 10 16.0934 0 0
3:53 am 03:53 Clear 39 3.9 33 0.6 79 79 W 7 11 30.11 1020 10 16.0934 0 0
4:53 am 04:53 Clear 37 2.8 32 0 82 82 W 6 9 30.14 1021 10 16.0934 0 0
5:53 am 05:53 Clear 34 1.1 30 -1.1 85 85 undefined N/A 30.17 1022 10 16.0934 0 0
6:53 am 06:53 Clear 35 1.7 31 -0.6 85 85 WNW 8 13 30.2 1023 10 16.0934 0 0
7:53 am 07:53 Sunny 38 3.3 33 0.6 83 83 Calm 30.22 1023 10 16.0934 0 0
8:53 am 08:53 Sunny 45 7.2 35 1.7 68 68 NW 5 7 30.21 1023 10 16.0934 0 0
9:53 am 09:53 Sunny 56 13.3 37 2.8 49 49 NW 8 13 30.21 1023 10 16.0934 0 0
10:53 am 10:53 Sunny 62 16.7 38 3.3 41 41 WNW 5 7 30.19 1022 10 16.0934 0 0
11:53 am 11:53 Sunny 68 20 38 3.3 33 33 W 7 11 30.17 1022 10 16.0934 0 0
12:53 pm 12:53 Sunny 72 22.2 37 2.8 28 28 WSW 10 17 30.14 1021 10 16.0934 0 0
1:53 pm 13:53 Sunny 75 23.9 36 2.2 24 24 W 7 11 30.09 1019 10 16.0934 0 0
2:53 pm 14:53 Sunny 76 24.4 34 1.1 22 22 VRB 7 11 30.08 1019 10 16.0934 0 0
3:53 pm 15:53 Sunny 77 25 35 1.7 22 22 NW 9 15 30.07 1018 10 16.0934 0 0
4:53 pm 16:53 Sunny 73 22.8 34 1.1 24 24 WNW 3 6 30.09 1019 10 16.0934 0 0
5:53 pm 17:53 Sunny 63 17.2 36 2.2 37 37 Calm 30.12 1020 10 16.0934 0 0
6:53 pm 18:53 Clear 57 13.9 35 1.7 44 44 ESE 6 9 30.15 1021 8 12.87472 0 0
7:53 pm 19:53 Clear 55 12.8 35 1.7 47 47 E 9 15 30.15 1021 10 16.0934 0 0
8:53 pm 20:53 Clear 51 10.6 34 1.1 52 52 S 3 6 30.16 1022 10 16.0934 0 0
9:53 pm 21:53 Clear 46 7.8 34 1.1 63 63 NNE 3 6 30.16 1021 10 16.0934 0 0
10:53 pm 22:53 Clear 50 10 34 1.1 54 54 NNW 10 17 30.14 1021 10 16.0934 0 0
11:53 pm 23:53 Clear 48 8.9 33 0.6 56 56 N 7 11 30.12 1020 10 16.0934 0 0

Powered by AerisWeather